When you browse on this site, cookies collect data to enhance your experience and personalize the content and advertising you see.
Visit our Privacy Policy to learn more. By continuing to use the site, you agree to this use of cookies and data.
  • In Hungary
  • List of Countries
  • For 7 days
  • Water Temperature
  • Satellite Maps
  • Weather Map
  • News
  • Weather Widgets
  • user-avatar
    Login

    Hourly Weather Praia

    Today, 18 November, Sunday

    Time Temperature Precipitation Wind Pressure Humidity
    00:00 +25°C° 0 mm 5 mps 684 mmHg 23%
    01:00 +23°C° 0 mm 4 mps 684 mmHg 24%
    02:00 +22°C° 0 mm 4 mps 684 mmHg 27%
    03:00 +22°C° 0 mm 4 mps 684 mmHg 27%
    04:00 +21°C° 0 mm 3 mps 684 mmHg 28%
    05:00 +21°C° 0 mm 3 mps 684 mmHg 29%
    06:00 +22°C° 0 mm 3 mps 684 mmHg 28%
    07:00 +22°C° 0 mm 3 mps 684 mmHg 26%
    08:00 +24°C° 0 mm 2 mps 685 mmHg 25%
    09:00 +26°C° 0 mm 2 mps 685 mmHg 22%
    10:00 +28°C° 0 mm 2 mps 685 mmHg 20%
    11:00 +30°C° 0 mm 1 mps 686 mmHg 17%
    12:00 +31°C° 0 mm 1 mps 685 mmHg 16%
    13:00 +32°C° 0 mm 2 mps 685 mmHg 15%
    14:00 +34°C° 0 mm 2 mps 684 mmHg 14%
    15:00 +34°C° 0 mm 2 mps 684 mmHg 14%
    16:00 +34°C° 0 mm 3 mps 684 mmHg 14%
    17:00 +34°C° 0 mm 4 mps 683 mmHg 13%
    18:00 +32°C° 0 mm 4 mps 683 mmHg 15%
    19:00 +30°C° 0 mm 4 mps 683 mmHg 16%
    20:00 +29°C° 0 mm 4 mps 684 mmHg 17%
    21:00 +28°C° 0 mm 4 mps 684 mmHg 18%
    22:00 +27°C° 0 mm 5 mps 684 mmHg 19%
    23:00 +26°C° 0 mm 5 mps 684 mmHg 20%

    Tomorrow, 19 November, Monday

    Time Temperature Precipitation Wind Pressure Humidity
    00:00 +26°C° 0 mm 5 mps 684 mmHg 21%
    01:00 +25°C° 0 mm 5 mps 684 mmHg 22%
    02:00 +23°C° 0 mm 5 mps 683 mmHg 23%
    03:00 +23°C° 0 mm 4 mps 683 mmHg 24%
    04:00 +22°C° 0 mm 4 mps 683 mmHg 24%
    05:00 +21°C° 0 mm 4 mps 683 mmHg 25%
    06:00 +22°C° 0 mm 4 mps 683 mmHg 25%
    07:00 +22°C° 0 mm 5 mps 684 mmHg 24%
    08:00 +22°C° 0 mm 5 mps 684 mmHg 23%
    09:00 +25°C° 0 mm 5 mps 685 mmHg 21%
    10:00 +27°C° 0 mm 5 mps 685 mmHg 18%
    11:00 +30°C° 0 mm 5 mps 686 mmHg 15%
    12:00 +30°C° 0 mm 5 mps 685 mmHg 14%
    13:00 +32°C° 0 mm 4 mps 684 mmHg 13%
    14:00 +33°C° 0 mm 4 mps 684 mmHg 12%
    15:00 +33°C° 0 mm 4 mps 684 mmHg 11%
    16:00 +33°C° 0 mm 5 mps 683 mmHg 11%
    17:00 +33°C° 0 mm 5 mps 683 mmHg 11%
    18:00 +30°C° 0 mm 5 mps 683 mmHg 11%
    19:00 +29°C° 0 mm 5 mps 683 mmHg 12%
    20:00 +27°C° 0 mm 5 mps 684 mmHg 12%
    21:00 +26°C° 0 mm 5 mps 684 mmHg 12%
    22:00 +26°C° 0 mm 5 mps 684 mmHg 13%
    23:00 +24°C° 0 mm 6 mps 684 mmHg 13%

    Day after tomorrow, 20 November, Tuesday

    Time Temperature Precipitation Wind Pressure Humidity
    00:00 +23°C° 0 mm 5 mps 684 mmHg 14%
    01:00 +22°C° 0 mm 5 mps 684 mmHg 15%
    02:00 +22°C° 0 mm 5 mps 683 mmHg 15%
    03:00 +21°C° 0 mm 5 mps 683 mmHg 16%
    04:00 +20°C° 0 mm 5 mps 683 mmHg 17%
    05:00 +20°C° 0 mm 5 mps 683 mmHg 18%
    06:00 +20°C° 0 mm 6 mps 683 mmHg 19%
    07:00 +21°C° 0 mm 6 mps 684 mmHg 19%
    08:00 +21°C° 0 mm 7 mps 685 mmHg 19%
    09:00 +23°C° 0 mm 7 mps 685 mmHg 17%
    10:00 +26°C° 0 mm 8 mps 685 mmHg 15%
    11:00 +28°C° 0 mm 8 mps 686 mmHg 13%
    12:00 +29°C° 0 mm 8 mps 685 mmHg 12%
    13:00 +30°C° 0 mm 7 mps 685 mmHg 10%
    14:00 +33°C° 0 mm 7 mps 684 mmHg 9%
    15:00 +32°C° 0 mm 7 mps 684 mmHg 9%
    16:00 +32°C° 0 mm 7 mps 683 mmHg 9%
    17:00 +32°C° 0 mm 6 mps 683 mmHg 10%
    18:00 +29°C° 0 mm 6 mps 683 mmHg 11%
    19:00 +28°C° 0 mm 5 mps 684 mmHg 12%
    20:00 +26°C° 0 mm 5 mps 684 mmHg 13%
    21:00 +26°C° 0 mm 5 mps 684 mmHg 13%
    22:00 +25°C° 0 mm 5 mps 684 mmHg 14%
    23:00 +23°C° 0 mm 6 mps 684 mmHg 14%

    21 November, Wednesday

    Time Temperature Precipitation Wind Pressure Humidity
    00:00 +23°C° 0 mm 6 mps 684 mmHg 15%
    01:00 +22°C° 0 mm 5 mps 683 mmHg 16%
    02:00 +21°C° 0 mm 5 mps 683 mmHg 16%
    03:00 +21°C° 0 mm 5 mps 683 mmHg 17%
    04:00 +20°C° 0 mm 5 mps 683 mmHg 18%
    05:00 +20°C° 0 mm 5 mps 683 mmHg 18%
    06:00 +20°C° 0 mm 6 mps 683 mmHg 18%
    07:00 +21°C° 0 mm 6 mps 683 mmHg 17%
    08:00 +21°C° 0 mm 7 mps 684 mmHg 17%
    09:00 +23°C° 0 mm 7 mps 684 mmHg 15%
    10:00 +27°C° 0 mm 7 mps 685 mmHg 12%
    11:00 +29°C° 0 mm 7 mps 685 mmHg 10%
    12:00 +30°C° 0 mm 6 mps 685 mmHg 9%
    13:00 +32°C° 0 mm 6 mps 684 mmHg 9%
    14:00 +34°C° 0 mm 5 mps 683 mmHg 8%
    15:00 +33°C° 0 mm 5 mps 683 mmHg 9%
    16:00 +33°C° 0 mm 5 mps 683 mmHg 9%
    17:00 +33°C° 0 mm 5 mps 683 mmHg 10%
    18:00 +30°C° 0 mm 5 mps 683 mmHg 11%
    19:00 +29°C° 0 mm 5 mps 683 mmHg 13%
    20:00 +27°C° 0 mm 5 mps 684 mmHg 14%
    21:00 +27°C° 0 mm 6 mps 684 mmHg 16%
    22:00 +26°C° 0 mm 6 mps 684 mmHg 17%
    23:00 +24°C° 0 mm 6 mps 684 mmHg 18%

    22 November, Thursday

    Time Temperature Precipitation Wind Pressure Humidity
    00:00 +23°C° 0 mm 6 mps 684 mmHg 19%
    01:00 +23°C° 0 mm 6 mps 683 mmHg 21%
    02:00 +22°C° 0 mm 5 mps 683 mmHg 22%
    03:00 +22°C° 0 mm 5 mps 683 mmHg 23%
    04:00 +21°C° 0 mm 5 mps 683 mmHg 24%
    05:00 +20°C° 0 mm 5 mps 683 mmHg 25%
    06:00 +21°C° 0 mm 5 mps 683 mmHg 25%
    07:00 +21°C° 0 mm 6 mps 684 mmHg 24%
    08:00 +22°C° 0 mm 6 mps 684 mmHg 24%
    09:00 +24°C° 0 mm 6 mps 685 mmHg 21%
    10:00 +27°C° 0 mm 6 mps 685 mmHg 18%
    11:00 +29°C° 0 mm 6 mps 685 mmHg 15%
    12:00 +30°C° 0 mm 5 mps 684 mmHg 13%
    13:00 +33°C° 0 mm 4 mps 684 mmHg 12%
    14:00 +34°C° 0 mm 4 mps 683 mmHg 11%
    15:00 +33°C° 0 mm 4 mps 683 mmHg 10%
    16:00 +33°C° 0 mm 4 mps 683 mmHg 10%
    17:00 +33°C° 0 mm 4 mps 683 mmHg 10%
    18:00 +32°C° 0 mm 5 mps 683 mmHg 10%
    19:00 +29°C° 0 mm 5 mps 684 mmHg 10%
    20:00 +27°C° 0 mm 6 mps 684 mmHg 10%
    21:00 +27°C° 0 mm 6 mps 684 mmHg 10%
    22:00 +26°C° 0 mm 6 mps 684 mmHg 9%
    23:00 +24°C° 0 mm 6 mps 684 mmHg 9%

    23 November, Friday

    Time Temperature Precipitation Wind Pressure Humidity
    00:00 +23°C° 0 mm 6 mps 684 mmHg 10%
    01:00 +23°C° 0 mm 6 mps 683 mmHg 10%
    02:00 +22°C° 0 mm 6 mps 683 mmHg 10%
    03:00 +21°C° 0 mm 5 mps 683 mmHg 11%
    04:00 +21°C° 0 mm 5 mps 683 mmHg 11%
    05:00 +20°C° 0 mm 5 mps 683 mmHg 12%
    06:00 +21°C° 0 mm 6 mps 684 mmHg 12%
    07:00 +21°C° 0 mm 6 mps 684 mmHg 12%
    08:00 +21°C° 0 mm 7 mps 685 mmHg 12%
    09:00 +24°C° 0 mm 7 mps 685 mmHg 11%
    10:00 +27°C° 0 mm 7 mps 685 mmHg 9%
    11:00 +29°C° 0 mm 7 mps 685 mmHg 8%
    12:00 +30°C° 0 mm 7 mps 685 mmHg 7%
    13:00 +33°C° 0 mm 7 mps 684 mmHg 7%
    14:00 +34°C° 0 mm 7 mps 684 mmHg 6%
    15:00 +33°C° 0 mm 7 mps 684 mmHg 6%
    16:00 +33°C° 0 mm 7 mps 684 mmHg 7%
    17:00 +32°C° 0 mm 7 mps 683 mmHg 7%
    18:00 +30°C° 0 mm 6 mps 684 mmHg 8%
    19:00 +29°C° 0 mm 6 mps 684 mmHg 9%
    20:00 +27°C° 0 mm 5 mps 684 mmHg 11%
    21:00 +26°C° 0 mm 6 mps 684 mmHg 11%
    22:00 +26°C° 0 mm 6 mps 684 mmHg 12%
    23:00 +24°C° 0 mm 6 mps 684 mmHg 13%
    Show more